Theta_e
299 299 299 298 298 298 298 298 298 298 297 298 298 298 299 298 298 296 294 301 295 290 290 292 292 289 290 289 285 287 287 288 286 281 281 280 280 281 279 281 279 278 277 277 279 277 272 286 286 280 283 288 287 295
299 299 298 298 298 299 299 298 298 298 297 298 298 298 298 298 299 297 288 300 301 291 290 296 296 297 295 293 291 290 287 286 289 284 285 284 281 283 280 276 284 278 281 279 279 279 289 288 286 288 289 287 288 293
300 299 299 299 299 299 298 298 299 299 298 298 299 298 298 299 299 298 292 293 292 290 292 291 291 296 298 297 297 288 290 290 290 292 287 285 280 283 278 278 280 283 285 282 281 283 285 290 290 291 289 287 290 296
299 299 299 299 299 298 298 298 297 298 298 298 298 298 299 299 298 297 292 294 294 290 285 288 296 292 296 297 296 296 293 294 293 291 287 285 282 287 282 283 281 284 284 282 282 284 285 288 289 290 288 289 291 293
298 298 299 299 299 298 298 299 298 297 298 298 298 298 299 299 298 297 295 294 297 291 287 288 293 295 296 297 295 295 294 292 290 287 286 283 286 285 286 285 282 286 283 281 281 285 285 285 289 290 289 288 291 289
299 298 298 299 299 299 298 298 298 299 298 298 298 297 297 297 296 294 287 296 300 298 290 284 294 292 294 296 295 294 294 292 291 288 286 287 289 286 281 280 286 288 288 288 285 289 288 289 290 290 289 290 291 290
299 299 299 299 299 298 298 297 298 297 298 297 297 297 296 297 297 292 290 294 298 299 290 285 286 291 293 293 294 293 294 292 290 289 287 287 287 286 284 279 286 287 288 289 290 290 287 288 287 291 290 290 291 290
299 299 298 298 298 298 298 297 297 297 297 296 296 296 295 296 297 294 297 297 298 293 293 284 285 287 292 289 288 294 290 291 290 288 288 285 286 285 280 285 286 288 289 289 290 290 289 290 290 290 291 291 289 290
298 298 298 298 298 298 298 297 297 296 296 296 295 294 297 295 290 292 295 297 300 294 284 286 282 281 291 291 292 292 291 284 290 285 285 285 282 279 282 283 285 287 287 288 290 290 290 290 289 290 290 290 289 290
297 297 297 297 297 297 297 298 298 297 297 295 296 294 287 292 295 295 294 289 291 291 292 285 290 285 290 289 286 285 286 281 278 283 286 282 280 285 286 287 287 287 289 290 286 286 288 288 290 289 290 291 290 291
297 297 297 297 298 298 298 297 297 297 296 297 293 289 295 295 293 291 284 283 286 282 288 288 287 285 291 283 284 286 282 283 277 281 280 279 280 283 286 285 288 289 291 289 290 291 292 292 290 290 291 292 293 294
296 296 297 297 296 297 297 297 296 296 295 292 293 295 296 290 286 281 281 283 281 279 286 284 286 287 288 291 284 284 280 281 274 285 280 277 282 286 286 286 288 289 290 291 292 291 292 291 292 293 293 294 295 294
296 296 296 296 296 296 296 296 296 295 294 296 291 286 286 285 277 276 274 278 280 284 286 287 285 288 287 287 284 282 277 278 285 279 279 282 286 285 285 286 287 288 289 291 290 291 293 290 289 289 287 288 288 286
296 296 296 296 295 295 296 296 296 295 293 288 284 277 279 278 279 281 281 282 287 287 287 287 286 285 287 283 283 278 282 282 277 275 276 284 284 285 286 285 285 285 286 286 288 287 286 286 285 285 285 285 285 285
296 296 296 296 295 295 296 296 296 295 290 284 284 277 279 284 286 286 287 287 288 289 288 286 286 286 283 281 282 280 277 275 278 279 283 283 286 286 285 284 285 284 285 286 287 287 285 285 285 285 285 286 285 285
295 295 296 294 295 296 296 296 296 295 290 285 283 280 285 283 285 286 286 286 290 290 290 288 282 281 280 281 278 278 277 276 280 284 284 286 286 286 284 284 285 285 285 286 286 286 287 286 286 287 286 286 286 286
294 294 293 295 295 296 296 294 294 287 285 282 283 287 286 285 284 286 288 288 293 288 283 284 278 279 285 280 278 284 281 283 284 284 286 286 285 285 284 285 285 286 285 286 286 286 285 287 287 287 286 286 286 286
293 296 296 295 296 295 296 293 289 285 280 284 283 285 286 287 286 286 288 290 289 286 285 281 285 279 278 276 280 285 287 286 286 286 285 286 285 285 284 284 285 286 286 287 287 287 287 285 287 287 287 288 288 287
294 295 295 295 294 291 288 288 290 281 283 286 286 288 288 288 289 289 289 290 290 290 287 285 280 279 281 285 285 287 287 288 286 286 286 286 285 283 284 285 286 285 285 286 287 287 288 288 288 288 288 288 287 288
295 294 294 293 294 288 284 286 292 284 281 285 287 286 286 286 288 288 288 288 287 285 282 281 282 284 286 288 290 289 288 289 288 284 285 286 287 286 286 286 286 284 285 286 286 286 286 287 289 290 290 289 288 288
292 293 292 293 291 290 287 285 285 286 286 283 286 286 285 288 286 286 286 288 285 283 281 284 284 288 289 287 288 288 286 286 284 284 284 285 286 286 286 286 284 284 284 284 283 284 285 285 286 286 288 289 292 291
294 291 291 291 286 286 284 287 284 287 284 284 284 285 283 283 283 285 287 283 281 280 281 281 282 285 284 284 285 285 285 285 285 285 282 284 284 283 283 282 283 283 284 283 283 282 283 284 286 286 285 286 288 291
290 290 287 286 281 281 281 288 281 284 279 280 282 279 279 280 282 286 281 281 280 282 282 283 283 283 282 283 283 282 283 283 283 282 281 281 282 282 282 284 284 282 282 282 283 282 282 283 285 285 285 286 286 285
287 283 279 279 279 277 280 279 282 280 280 277 275 273 275 277 281 278 276 278 279 281 280 280 281 282 282 281 281 280 280 282 282 281 281 281 281 282 284 283 282 282 282 283 283 283 283 283 284 284 284 284 285 285
279 277 277 273 277 275 273 274 273 276 272 273 271 271 274 278 274 274 274 276 278 278 278 279 279 280 278 280 280 280 281 280 280 279 280 281 282 283 283 284 283 281 282 281 281 281 282 283 283 283 283 283 282 283
273 276 274 276 275 273 273 269 270 270 271 268 270 274 276 274 270 270 274 276 276 277 278 277 277 277 279 278 278 278 278 280 280 280 279 280 280 279 278 278 278 281 281 280 279 279 280 280 281 280 281 281 281 282
273 274 275 278 276 275 274 275 274 272 268 268 272 271 271 267 269 273 278 278 277 278 279 278 277 277 277 277 278 278 279 279 279 280 281 280 280 279 278 276 275 277 279 279 279 279 279 279 278 279 279 281 282 282
276 276 270 273 273 275 270 270 269 268 271 275 273 268 267 269 271 277 278 280 280 279 279 279 278 278 277 277 278 278 278 278 279 280 281 280 280 280 278 278 278 278 279 279 279 279 279 279 279 279 279 280 281 284
273 275 273 268 270 272 271 271 271 274 277 275 271 270 271 276 278 278 279 280 280 279 277 277 278 278 278 278 277 277 276 276 275 272 271 275 276 277 277 277 277 278 278 278 279 279 279 279 279 280 280 281 282 283
272 275 272 269 267 269 274 276 275 278 278 277 277 275 275 276 279 281 279 278 277 276 277 277 277 277 276 276 275 274 275 275 273 272 272 272 272 275 276 276 276 276 277 277 277 278 279 280 280 282 281 281 281 280
275 274 272 272 270 274 277 277 276 275 274 274 275 273 272 275 278 280 278 278 278 277 276 275 275 276 275 274 274 273 273 274 272 272 271 272 273 275 275 275 276 277 277 276 276 277 277 277 279 279 279 279 278 278
274 272 271 269 271 273 274 273 274 273 273 272 272 274 274 272 271 276 278 277 276 275 275 276 275 275 275 275 274 274 268 272 272 271 271 270 271 272 273 274 276 276 276 275 276 277 276 276 277 278 278 277 277 277
270 271 271 271 270 270 272 271 270 269 271 270 272 273 273 272 270 277 278 278 277 276 276 276 277 277 274 273 272 273 270 273 269 268 268 268 267 268 269 273 274 274 274 275 276 276 275 275 275 276 277 277 276 276
Wind_Speed
18 17 13 12 14 14 15 13 11 8 7 2 10 13 14 12 15 7 2 13 7 5 8 6 9 9 6 6 7 2 5 7 5 5 5 2 4 0 5 6 2 3 6 5 6 5 3 14 9 9 10 13 18 25
19 14 13 13 13 14 12 10 12 6 6 4 7 10 9 9 19 9 2 5 4 2 4 6 9 12 8 7 5 3 4 2 1 4 2 4 4 3 6 4 3 2 2 6 3 4 8 3 4 8 13 17 12 19
16 13 13 13 12 14 15 11 12 12 11 10 8 7 5 9 15 6 4 4 3 2 4 5 9 11 10 9 6 7 3 3 2 2 3 3 5 6 6 6 7 2 3 4 7 4 8 7 8 5 7 16 17 14
14 14 15 14 13 12 12 11 10 10 9 5 4 4 6 13 16 8 3 4 2 2 4 6 5 4 5 8 9 8 6 7 5 5 4 4 5 6 7 11 11 9 7 8 9 7 10 2 6 6 9 12 12 19
11 13 14 14 13 13 13 12 9 7 11 9 6 6 11 18 13 6 4 3 4 5 3 4 6 6 7 8 10 11 9 9 6 7 5 7 8 7 9 12 9 11 8 7 8 8 10 9 9 9 11 8 5 9
11 11 13 13 13 14 16 17 13 12 13 14 16 16 15 16 12 4 2 6 10 4 3 3 4 7 5 8 9 9 8 7 8 7 5 7 13 7 8 12 14 15 11 12 13 12 13 14 14 10 10 5 6 6
14 14 14 15 15 14 16 17 17 16 19 17 15 13 10 11 5 3 3 4 2 5 2 4 4 6 3 5 5 5 7 6 5 6 7 11 11 6 7 14 18 18 19 19 18 15 13 15 12 11 7 7 6 1
15 16 16 16 16 15 14 13 15 16 15 10 7 6 6 4 3 3 5 5 6 4 3 4 2 5 4 3 3 3 4 4 5 8 8 9 9 9 10 16 17 17 19 20 18 13 14 14 13 14 11 8 9 8
14 13 12 12 11 10 9 7 5 3 1 2 5 7 4 3 2 1 7 8 3 2 2 3 4 3 2 1 1 2 2 4 4 6 10 7 8 9 12 19 20 22 23 24 21 17 13 14 13 14 11 9 10 8
12 11 12 13 13 13 14 13 14 13 10 6 6 1 1 2 3 9 3 0 2 3 3 4 1 1 2 1 1 3 1 2 3 1 5 4 6 9 9 14 15 15 15 16 17 16 14 13 15 12 11 10 10 8
10 10 11 13 13 13 14 15 17 16 10 1 2 2 1 4 3 2 1 3 3 4 4 2 4 3 3 3 2 1 3 3 3 1 3 2 1 10 12 13 12 14 12 2 7 12 12 10 12 9 6 6 8 7
12 11 12 11 12 14 15 14 16 10 6 5 6 1 1 2 2 4 2 1 5 2 3 3 2 3 2 1 3 3 4 2 4 1 3 2 6 8 12 12 14 17 15 13 6 3 6 3 7 6 5 7 9 10
10 10 11 12 10 12 14 14 13 8 9 5 3 2 3 3 3 4 5 3 2 3 3 3 2 2 3 2 3 3 4 5 2 3 3 4 8 9 11 11 12 13 15 16 15 15 12 10 8 6 4 5 8 9
12 12 13 13 7 11 13 13 13 9 5 3 3 4 4 3 5 2 4 4 3 3 3 4 4 2 3 3 3 4 3 3 4 4 3 5 8 8 9 10 12 14 12 10 11 8 6 5 6 6 5 6 7 8
13 14 15 10 8 12 13 13 11 5 3 4 2 5 4 4 2 3 3 4 5 4 3 4 4 4 4 3 4 4 4 5 5 1 4 3 6 9 10 11 11 11 9 9 7 6 5 4 5 6 5 7 7 6
15 20 2 6 12 15 15 11 7 3 3 4 5 4 4 4 4 2 5 7 4 3 2 3 4 3 5 3 5 6 4 3 3 4 3 3 6 8 8 8 10 9 9 7 7 6 4 3 3 4 5 5 5 4
16 5 6 11 15 18 7 4 2 5 4 4 3 3 6 7 6 6 6 6 2 3 2 2 4 4 1 4 4 2 3 4 4 3 3 4 6 6 6 7 7 8 9 8 7 4 5 4 2 3 4 5 4 5
9 7 10 12 12 10 2 3 3 4 5 5 6 4 4 5 6 7 7 6 5 4 3 5 4 5 4 5 2 2 3 4 2 2 2 2 4 5 5 7 8 9 9 8 6 6 2 2 3 2 3 5 5 4
10 11 16 14 9 5 3 3 3 4 4 4 5 5 5 5 7 7 7 7 7 6 3 3 6 5 7 5 3 2 1 1 2 2 1 1 2 3 6 6 7 8 9 9 8 6 5 5 5 3 2 4 3 4
14 10 8 11 9 3 4 2 1 4 4 3 5 6 5 5 5 4 4 5 6 3 5 5 8 9 7 3 1 1 3 2 2 2 2 2 1 4 5 5 6 7 7 7 7 6 6 5 4 5 4 4 2 3
9 5 6 6 2 3 3 3 4 3 4 3 5 7 6 4 5 4 3 2 4 4 4 5 9 5 2 3 1 3 3 3 2 2 3 3 4 4 4 5 6 5 5 5 6 6 7 6 7 5 4 5 3 2
2 5 3 3 3 2 3 2 4 6 4 5 5 4 5 6 5 2 3 1 2 3 4 5 7 7 3 3 3 5 3 3 3 2 2 2 4 4 5 4 5 4 4 5 6 6 6 7 8 6 5 3 4 3
1 2 1 2 3 4 3 2 4 3 4 4 6 7 6 6 7 6 2 2 3 5 6 6 4 6 5 4 4 5 5 5 3 3 2 3 3 2 3 2 5 5 5 5 6 6 6 8 8 7 6 5 3 2
2 1 2 2 3 2 2 3 3 4 4 5 5 7 8 5 6 7 10 4 4 5 6 9 9 1 2 2 3 4 5 4 1 2 2 3 2 1 1 4 4 4 5 5 5 6 6 6 8 8 7 6 5 2
4 4 4 5 3 4 4 2 3 3 4 4 5 4 4 4 4 8 2 3 4 5 5 6 6 6 5 4 3 4 5 4 3 3 4 4 4 2 2 2 3 4 6 6 7 8 7 6 6 8 8 7 8 9
6 5 5 5 3 4 4 3 3 4 3 3 4 3 3 4 5 2 3 3 4 4 6 6 6 6 2 4 4 4 5 5 6 2 3 4 5 5 5 4 4 4 7 6 6 8 8 8 8 10 8 8 8 8
6 7 4 2 2 2 2 1 2 3 4 4 3 2 3 4 5 3 4 3 3 3 4 4 4 5 4 4 4 4 4 5 5 5 3 3 4 4 4 5 6 5 7 7 7 7 8 8 8 8 8 8 7 7
5 5 7 7 4 3 4 3 4 5 4 3 2 5 4 4 2 3 3 2 2 3 3 2 2 3 3 3 4 4 4 5 4 3 2 2 3 3 5 4 4 8 6 6 7 7 7 8 8 9 9 8 7 6
5 5 6 4 3 4 5 6 4 4 3 4 4 4 4 3 3 3 4 3 4 4 4 3 1 1 2 1 3 4 5 5 6 1 0 1 2 4 6 6 6 6 6 7 9 8 9 9 9 8 9 8 7 6
6 8 5 6 5 7 5 5 3 3 4 5 5 7 8 8 8 5 4 6 6 5 2 2 1 1 1 1 2 3 4 5 5 6 5 5 5 6 6 7 7 7 7 7 8 9 9 8 8 6 6 6 5 6
7 6 5 5 4 3 1 2 2 3 3 5 8 10 11 9 8 4 7 7 5 3 4 5 4 3 2 2 1 1 2 4 4 4 4 4 5 6 6 7 7 7 7 8 8 8 8 8 7 7 7 7 8 9
5 7 6 5 4 4 3 3 2 4 4 6 7 6 5 4 6 4 6 7 6 7 8 5 4 5 4 3 2 2 2 2 3 4 5 5 6 7 7 7 7 7 7 8 8 8 9 9 8 8 7 8 9 9
3 3 2 2 4 5 4 3 3 4 4 4 5 6 6 7 7 2 4 6 7 7 6 6 3 5 6 4 3 2 1 1 3 3 4 6 6 7 7 6 6 7 8 8 7 8 9 11 9 10 8 7 8 9
Wind_Direction
340 342 343 339 339 341 335 344 352 1 3 102 182 195 181 191 197 194 213 189 183 227 246 225 249 258 258 244 250 151 215 208 191 236 259 256 272 345 262 286 343 295 314 6 326 283 340 4 1 8 322 307 315 317
349 354 356 350 343 350 0 9 15 36 22 4 182 171 194 189 165 124 82 184 191 276 323 314 270 268 297 332 318 233 315 190 23 272 255 285 268 257 291 315 193 323 3 324 262 304 275 209 247 301 335 322 305 314
3 13 8 14 25 30 35 51 39 52 60 71 93 131 161 161 147 142 111 102 90 235 256 245 233 235 241 250 295 283 268 314 239 310 315 312 293 352 310 315 330 310 19 276 318 325 315 200 255 249 336 318 318 312
23 29 25 23 28 38 34 35 44 48 43 53 72 98 153 160 132 135 115 158 171 205 245 185 135 215 214 225 231 243 259 263 290 253 230 265 282 298 292 320 299 300 313 282 302 297 344 198 287 329 314 307 343 340
23 23 18 17 26 34 25 36 59 60 66 64 89 105 120 138 130 96 107 190 253 273 312 115 166 169 204 216 227 228 238 247 259 268 244 257 274 285 279 275 264 267 279 269 264 323 309 291 300 304 311 320 32 347
16 17 23 26 22 46 56 45 41 67 60 65 96 84 93 112 107 174 137 203 227 274 304 223 116 176 183 209 217 220 225 234 243 264 270 272 270 268 267 278 294 304 285 269 274 287 293 295 290 282 285 308 40 22
31 36 32 40 54 66 57 52 62 63 74 75 87 102 121 162 214 14 17 356 181 252 280 262 182 155 213 212 221 227 227 244 257 273 257 257 269 193 259 272 288 292 289 285 284 277 269 272 270 283 250 275 302 135
48 54 51 55 55 53 55 66 69 78 88 83 76 22 351 328 158 82 36 358 305 265 269 279 145 170 191 217 234 224 238 232 232 241 259 268 270 268 268 277 289 314 315 309 298 277 269 272 269 273 275 275 265 254
41 40 36 31 30 31 31 22 10 0 351 266 283 291 269 18 36 29 323 300 291 253 269 260 269 153 165 225 293 248 278 267 273 257 260 268 270 255 315 349 321 303 292 286 281 286 272 275 254 264 275 263 254 244
27 22 17 12 10 10 5 353 339 331 318 282 252 74 40 74 257 260 212 306 296 241 233 264 267 210 274 67 287 306 94 246 283 272 308 265 268 22 343 298 291 294 285 272 257 246 250 255 263 251 257 250 240 220
18 13 10 7 2 358 355 355 345 323 253 16 339 26 124 193 237 256 260 251 203 231 215 271 334 314 78 294 333 109 288 253 257 79 292 272 302 1 338 335 340 346 2 349 239 248 258 268 257 231 241 247 237 182
351 352 354 349 353 356 355 352 347 337 12 341 322 299 352 288 257 245 243 234 249 332 144 289 47 350 99 205 262 193 248 247 262 269 260 251 46 11 349 350 357 3 355 351 349 237 228 302 2 328 320 301 247 111
329 327 327 335 330 345 346 348 345 316 271 220 239 298 251 164 247 248 178 216 216 179 207 231 255 270 157 223 245 229 235 239 329 236 228 63 35 19 354 357 358 8 1 3 21 16 34 38 25 30 49 66 84 96
315 314 315 319 320 335 335 335 337 322 275 272 225 261 246 184 237 256 311 351 39 278 266 292 287 267 199 216 240 248 226 256 254 236 156 63 11 1 9 0 1 5 3 8 7 29 42 58 73 68 72 82 102 112
313 311 304 286 331 329 328 323 312 281 277 269 251 254 229 251 297 292 295 264 251 249 306 296 255 237 198 218 223 251 216 238 225 191 77 33 5 12 14 359 360 356 354 2 15 30 38 44 63 67 62 89 93 93
319 299 238 9 332 323 319 300 257 238 243 249 239 259 264 283 268 263 264 261 265 261 231 237 272 246 216 216 207 224 250 245 67 66 80 24 23 22 7 356 354 349 344 353 6 9 22 30 37 104 103 87 99 112
304 257 45 341 323 307 295 271 237 226 239 237 240 269 278 283 284 287 274 258 226 231 239 314 262 240 270 237 239 265 334 74 53 95 68 43 26 20 1 354 348 344 349 349 355 360 354 348 156 174 114 114 117 123
270 324 340 335 320 293 239 226 251 241 246 247 263 281 270 272 280 273 265 263 242 223 207 222 265 241 245 264 255 125 116 133 145 121 96 35 16 13 352 344 345 345 348 350 344 331 251 301 280 155 138 161 168 169
297 311 317 313 316 304 274 219 248 264 254 283 273 268 266 267 263 268 277 274 265 268 266 236 239 244 248 275 297 173 177 277 97 85 335 107 71 358 313 335 323 353 341 343 344 344 325 301 273 311 218 197 209 181
292 287 299 297 289 266 255 234 253 267 264 299 287 279 279 273 291 268 256 275 285 264 234 236 255 270 293 306 81 34 79 145 225 250 227 179 296 346 330 340 5 337 339 343 357 358 353 353 315 255 225 226 233 222
254 56 314 278 222 247 274 295 269 237 287 280 289 296 288 297 297 293 301 8 237 233 279 360 344 341 39 74 135 149 160 174 168 258 310 314 4 321 343 2 352 335 344 1 354 354 356 5 353 326 272 227 238 252
8 336 289 22 280 278 266 258 290 308 279 283 303 298 288 291 297 297 337 279 72 34 3 340 351 346 49 45 67 62 80 95 89 109 224 290 341 351 344 347 318 350 356 27 360 355 350 354 351 341 338 292 219 238
291 236 254 240 236 234 255 294 257 259 274 293 308 298 295 301 323 301 258 86 87 32 2 358 5 19 31 41 51 45 30 18 53 48 6 335 318 330 318 319 33 9 3 13 0 354 352 343 352 349 350 356 1 97
182 239 235 233 244 244 289 264 257 269 310 317 314 311 301 312 312 297 276 71 53 31 18 5 350 267 175 139 54 43 17 354 31 89 30 325 343 6 47 64 50 27 2 350 4 358 2 356 354 356 355 359 1 331
227 183 222 213 234 219 220 240 287 292 279 300 300 280 320 308 281 294 351 62 29 27 14 4 358 357 354 13 57 68 35 3 352 76 45 357 350 7 69 81 102 57 16 357 357 344 353 355 354 356 349 355 357 352
233 168 206 200 193 210 187 211 208 239 302 281 268 308 305 295 266 246 93 34 356 5 4 355 346 325 28 44 3 15 7 345 319 133 74 32 30 14 0 355 346 44 17 351 339 335 333 342 342 342 340 344 341 333
229 191 190 220 234 184 211 246 265 245 224 231 251 290 273 257 256 104 114 83 346 360 340 350 332 328 346 12 15 357 340 347 341 352 87 70 55 38 13 355 341 355 335 337 334 332 326 328 330 330 324 322 325 327
224 173 179 180 194 194 181 210 199 215 220 204 224 215 229 242 314 85 69 49 325 306 303 318 330 330 345 6 2 353 351 330 294 230 189 164 122 71 22 352 336 328 324 333 335 330 326 325 321 319 315 311 311 321
190 164 132 161 179 196 215 202 218 209 217 197 219 231 243 258 8 309 297 311 302 285 277 287 184 268 217 138 65 36 24 3 355 73 271 19 42 46 9 343 336 338 335 327 327 325 324 316 308 305 305 301 312 308
166 162 166 164 187 209 207 199 231 230 256 257 266 273 272 275 281 275 262 265 261 251 237 237 218 266 81 351 80 75 65 42 26 9 5 24 5 342 331 342 338 339 336 333 331 328 332 328 317 309 320 323 334 342
144 171 167 176 214 198 182 95 282 232 239 257 258 263 270 284 284 242 243 243 239 208 199 202 190 186 174 145 49 76 114 86 37 17 4 323 321 318 336 332 327 329 327 334 331 328 336 331 325 328 339 340 341 339
172 182 162 184 187 134 181 216 263 260 257 237 252 233 244 236 251 224 179 203 204 210 212 220 202 171 146 120 104 89 67 332 341 357 344 338 320 329 325 318 319 326 329 327 329 334 337 337 326 323 332 340 347 342
116 151 162 181 183 189 149 220 237 278 250 258 256 239 235 244 256 190 142 200 208 206 200 190 176 121 147 145 114 100 201 21 14 315 310 320 306 307 302 308 330 327 331 327 332 339 342 339 334 330 329 342 344 343